Weather History for Clermont County, Batavia, OH

Change the Weather History Date:

Thursday, February 6, 2014

  Actual Average (KLUK) Record (KLUK)
Temperature  
Mean Temperature 22 °F -  
Max Temperature 26 °F 38 °F 66 °F (2008)
Min Temperature 15 °F 22 °F -4 °F (1977)
Degree Days  
Heating Degree Days 44    
Moisture  
Dew Point 19 °F    
Average Humidity 83    
Maximum Humidity 93    
Minimum Humidity 73    
Precipitation  
Precipitation 0.00 in - - ()
Sea Level Pressure  
Sea Level Pressure 30.39 in    
Wind  
Wind Speed 4 mph (WNW)    
Max Wind Speed 8 mph    
Max Gust Speed -    
Visibility 8 miles    
Events Snow    
Averages and records for this station are not official NWS values.
T = Trace of Precipitation, MM = Missing Value Source: NWS Daily Summary

Daily Weather History Graph

Daily Weather History Graph

Search for Another Location

Airport:

Trip Planner

Search our weather history database for the weather conditions in past years. The results will help you decide how hot, cold, wet, or windy it might be!

Date:

Astronomy

Feb. 06, 2014 Rise Set
Actual Time 7:38 AM EST 6:03 PM EST
Civil Twilight 7:10 AM EST 6:31 PM EST
Nautical Twilight 6:39 AM EST 7:03 PM EST
Astronomical Twilight 6:07 AM EST 7:34 PM EST
Moon 11:35 AM EST (2/6) 12:53 AM EST (2/6)
Length of Visible Light 11h 20m
Length of Day
10h 25m
Waxing Crescent, 49% of the Moon is Illuminated
Feb 6
Waxing Crescent
Feb 6
First Quarter
Feb 14
Full
Feb 22
Last Quarter
Mar 1
New

Hourly Weather History & Observations

Time (EST) Temp. Windchill Dew Point Humidity Pressure Visibility Wind Dir Wind Speed Gust Speed Precip Events Conditions
12:15 AM 26.6 °F 21.2 °F 23.0 °F 86% 30.36 in 10.0 mi NW 4.6 mph - N/A Snow Light Snow
12:35 AM 26.6 °F 21.2 °F 23.0 °F 86% 30.35 in 7.0 mi NNW 4.6 mph - N/A Snow Light Snow
12:56 AM 26.6 °F 22.6 °F 23.0 °F 86% 30.35 in 5.0 mi NNW 3.5 mph - N/A Snow Light Snow
1:15 AM 26.6 °F 22.6 °F 23.0 °F 86% 30.36 in 5.0 mi NW 3.5 mph - N/A Snow Light Snow
1:35 AM 26.6 °F 22.6 °F 23.0 °F 86% 30.36 in 3.0 mi NW 3.5 mph - N/A Snow Light Snow
1:56 AM 26.6 °F 22.6 °F 23.0 °F 86% 30.36 in 4.0 mi NW 3.5 mph - N/A Snow Light Snow
2:15 AM 24.8 °F 20.5 °F 23.0 °F 93% 30.37 in 3.0 mi NW 3.5 mph - N/A Snow Light Snow
2:35 AM 24.8 °F - 23.0 °F 93% 30.36 in 3.0 mi Calm Calm - N/A Snow Light Snow
2:56 AM 24.8 °F - 23.0 °F 93% 30.36 in 5.0 mi Calm Calm - N/A Snow Light Snow
3:15 AM 24.8 °F - 23.0 °F 93% 30.36 in 4.0 mi Calm Calm - N/A Snow Light Snow
3:34 AM 24.8 °F 20.5 °F 23.0 °F 93% 30.36 in 7.0 mi North 3.5 mph - N/A Snow Light Snow
3:55 AM 24.8 °F - 23.0 °F 93% 30.35 in 5.0 mi Calm Calm - N/A Snow Light Snow
4:15 AM 24.8 °F - 23.0 °F 93% 30.35 in 4.0 mi Calm Calm - N/A Snow Light Snow
4:35 AM 23.0 °F 15.8 °F 21.2 °F 93% 30.36 in 7.0 mi WNW 5.8 mph - N/A Snow Light Snow
4:55 AM 23.0 °F 15.8 °F 19.4 °F 86% 30.37 in 10.0 mi NW 5.8 mph - N/A Snow Light Snow
5:15 AM 23.0 °F 18.4 °F 19.4 °F 86% 30.38 in 5.0 mi WNW 3.5 mph - N/A Snow Light Snow
5:35 AM 23.0 °F 14.7 °F 17.6 °F 80% 30.38 in 7.0 mi NW 6.9 mph - N/A Snow Light Snow
5:55 AM 21.2 °F 16.4 °F 17.6 °F 86% 30.39 in 7.0 mi NW 3.5 mph - N/A Snow Light Snow
6:15 AM 21.2 °F 14.9 °F 17.6 °F 86% 30.39 in 10.0 mi NW 4.6 mph - N/A Snow Light Snow
6:35 AM 21.2 °F 16.4 °F 15.8 °F 80% 30.39 in 10.0 mi WNW 3.5 mph - N/A Snow Light Snow
6:55 AM 19.4 °F - 14.0 °F 80% 30.40 in 10.0 mi Calm Calm - N/A   Overcast
7:15 AM 19.4 °F - 15.8 °F 86% 30.40 in 10.0 mi Calm Calm - N/A   Overcast
7:35 AM 19.4 °F - 15.8 °F 86% 30.39 in 10.0 mi Calm Calm - N/A   Overcast
7:55 AM 17.6 °F - 14.0 °F 86% 30.39 in 10.0 mi Calm Calm - N/A   Scattered Clouds
8:16 AM 19.4 °F - 15.8 °F 86% 30.40 in 10.0 mi Calm Calm - N/A   Clear
8:35 AM 19.4 °F - 15.8 °F 86% 30.40 in 10.0 mi Calm Calm - N/A   Clear
8:55 AM 19.4 °F - 15.8 °F 86% 30.42 in 10.0 mi Calm Calm - N/A   Clear
9:16 AM 19.4 °F 14.3 °F 15.8 °F 86% 30.43 in 10.0 mi NW 3.5 mph - N/A   Clear
9:35 AM 21.2 °F - 17.6 °F 86% 30.43 in 10.0 mi Calm Calm - N/A   Clear
9:55 AM 21.2 °F 16.4 °F 17.6 °F 86% 30.44 in 10.0 mi NW 3.5 mph - N/A   Clear
10:16 AM 23.0 °F 18.4 °F 17.6 °F 80% 30.43 in 10.0 mi WNW 3.5 mph - N/A   Scattered Clouds
10:35 AM 23.0 °F 17.0 °F 17.6 °F 80% 30.43 in 10.0 mi NW 4.6 mph - N/A   Scattered Clouds
10:55 AM 23.0 °F 18.4 °F 17.6 °F 80% 30.43 in 10.0 mi WNW 3.5 mph - N/A   Scattered Clouds
11:16 AM 23.0 °F 17.0 °F 17.6 °F 80% 30.44 in 10.0 mi NW 4.6 mph - N/A   Scattered Clouds
11:35 AM 24.8 °F 19.1 °F 17.6 °F 74% 30.44 in 10.0 mi WNW 4.6 mph - N/A   Scattered Clouds
11:55 AM 24.8 °F 16.9 °F 17.6 °F 74% 30.44 in 10.0 mi WNW 6.9 mph - N/A   Overcast
12:16 PM 24.8 °F 20.5 °F 17.6 °F 74% 30.43 in 10.0 mi NW 3.5 mph - N/A   Overcast
12:35 PM 24.8 °F 19.1 °F 17.6 °F 74% 30.42 in 10.0 mi NW 4.6 mph - N/A Snow Light Snow
12:55 PM 24.8 °F 19.1 °F 17.6 °F 74% 30.41 in 10.0 mi WNW 4.6 mph - N/A Snow Light Snow
1:16 PM 24.8 °F 20.5 °F 17.6 °F 74% 30.39 in 10.0 mi West 3.5 mph - N/A   Overcast
1:35 PM 24.8 °F 17.9 °F 17.6 °F 74% 30.39 in 10.0 mi WSW 5.8 mph - N/A   Overcast
1:55 PM 24.8 °F 17.9 °F 19.4 °F 80% 30.38 in 5.0 mi WSW 5.8 mph - N/A Snow Light Snow
2:16 PM 26.6 °F 20.0 °F 19.4 °F 74% 30.37 in 10.0 mi WSW 5.8 mph - N/A Snow Light Snow
2:35 PM 26.6 °F 20.0 °F 19.4 °F 74% 30.37 in 10.0 mi WSW 5.8 mph - N/A Snow Light Snow
2:55 PM 26.6 °F - 19.4 °F 74% 30.37 in 7.0 mi Calm Calm - N/A Snow Light Snow
3:16 PM 26.6 °F 20.0 °F 19.4 °F 74% 30.37 in 7.0 mi WSW 5.8 mph - N/A Snow Light Snow
3:35 PM 26.6 °F 20.0 °F 19.4 °F 74% 30.37 in 10.0 mi SW 5.8 mph - N/A Snow Light Snow
3:55 PM 26.6 °F 22.6 °F 19.4 °F 74% 30.36 in 10.0 mi WSW 3.5 mph - N/A Snow Light Snow
4:15 PM 26.6 °F 22.6 °F 21.2 °F 80% 30.37 in 5.0 mi WSW 3.5 mph - N/A Snow Light Snow
4:35 PM 26.6 °F 20.0 °F 21.2 °F 80% 30.37 in 2.0 mi West 5.8 mph - N/A Snow Light Snow
4:56 PM 26.6 °F 21.2 °F 21.2 °F 80% 30.37 in 1.0 mi WNW 4.6 mph - N/A Snow Light Snow
5:15 PM 26.6 °F 22.6 °F 21.2 °F 80% 30.36 in 7.0 mi West 3.5 mph - N/A Snow Light Snow
5:35 PM 24.8 °F 16.9 °F 21.2 °F 86% 30.36 in 2.5 mi WNW 6.9 mph - N/A Snow Light Snow
5:56 PM 23.0 °F 15.8 °F 19.4 °F 86% 30.35 in 4.0 mi NW 5.8 mph - N/A Snow Light Snow
6:15 PM 23.0 °F 17.0 °F 19.4 °F 86% 30.36 in 10.0 mi WNW 4.6 mph - N/A Snow Light Snow
6:35 PM 23.0 °F 17.0 °F 19.4 °F 86% 30.37 in 7.0 mi NW 4.6 mph - N/A Snow Light Snow
6:56 PM 23.0 °F 18.4 °F 19.4 °F 86% 30.37 in 10.0 mi WNW 3.5 mph - N/A Snow Light Snow
7:15 PM 23.0 °F 18.4 °F 19.4 °F 86% 30.37 in 10.0 mi WNW 3.5 mph - N/A Snow Light Snow
7:35 PM 23.0 °F 18.4 °F 19.4 °F 86% 30.38 in 10.0 mi WNW 3.5 mph - N/A Snow Light Snow
7:56 PM 23.0 °F 18.4 °F 19.4 °F 86% 30.39 in 10.0 mi NW 3.5 mph - N/A Snow Light Snow
8:15 PM 23.0 °F 15.8 °F 19.4 °F 86% 30.39 in 10.0 mi West 5.8 mph - N/A Snow Light Snow
8:35 PM 23.0 °F 17.0 °F 17.6 °F 80% 30.38 in 7.0 mi West 4.6 mph - N/A Snow Light Snow
8:56 PM 23.0 °F - 17.6 °F 80% 30.39 in 10.0 mi Calm Calm - N/A Snow Light Snow
9:15 PM 23.0 °F 14.7 °F 19.4 °F 86% 30.39 in 10.0 mi WSW 6.9 mph - N/A Snow Light Snow
9:35 PM 21.2 °F 11.7 °F 17.6 °F 86% 30.39 in 10.0 mi West 8.1 mph - N/A Snow Light Snow
9:55 PM 21.2 °F 14.9 °F 17.6 °F 86% 30.39 in 10.0 mi West 4.6 mph - N/A Snow Light Snow
10:15 PM 21.2 °F 14.9 °F 17.6 °F 86% 30.39 in 10.0 mi NW 4.6 mph - N/A Snow Light Snow
10:35 PM 19.4 °F 9.5 °F 14.0 °F 80% 30.39 in 10.0 mi NNW 8.1 mph - N/A Snow Light Snow
10:55 PM 17.6 °F 7.3 °F 12.2 °F 79% 30.39 in 10.0 mi NNW 8.1 mph - N/A Snow Light Snow
11:15 PM 17.6 °F 8.2 °F 12.2 °F 79% 30.38 in 10.0 mi NNW 6.9 mph - N/A Snow Light Snow
11:35 PM 17.6 °F 10.7 °F 10.4 °F 73% 30.39 in 10.0 mi NNW 4.6 mph - N/A   Overcast
11:55 PM 15.8 °F 7.2 °F 10.4 °F 79% 30.39 in 10.0 mi NNW 5.8 mph - N/A   Overcast